Frederick, OK

2:06 PM CDT on July 21, 2017 (GMT -0500)
Frederick Municipal

Weather History for KFDR - January, 2014

Change the Weather History Date:

Saturday, January 4, 2014

  Actual Average (KLTS) Record (KLTS)
Temperature  
Mean Temperature 44 °F -  
Max Temperature 57 °F 49 °F 71 °F (1997)
Min Temperature 30 °F 26 °F 10 °F (1999)
Degree Days  
Heating Degree Days 22    
Moisture  
Dew Point 23 °F    
Average Humidity 46    
Maximum Humidity 67    
Minimum Humidity 28    
Precipitation  
Precipitation 0.00 in - - ()
Sea Level Pressure  
Sea Level Pressure 29.76 in    
Wind  
Wind Speed 18 mph (West)    
Max Wind Speed 32 mph    
Max Gust Speed 39 mph    
Visibility 10 miles    
Events      
Averages and records for this station are not official NWS values.
T = Trace of Precipitation, MM = Missing Value Source: NWS Daily Summary

Daily Weather History Graph

Daily Weather History Graph

Search for Another Location

Airport or City:

Trip Planner

Search our weather history database for the weather conditions in past years. The results will help you decide how hot, cold, wet, or windy it might be!

Date:

Astronomy

Jan. 04, 2014 Rise Set
Actual Time 7:42 AM CST 5:39 PM CST
Civil Twilight 7:15 AM CST 6:07 PM CST
Nautical Twilight 6:43 AM CST 6:38 PM CST
Astronomical Twilight 6:13 AM CST 7:08 PM CST
Moon 9:59 AM CST (1/4) 9:49 PM CST (1/4)
Length of Visible Light 10h 52m
Length of Day
9h 56m
Waxing Crescent, 15% of the Moon is Illuminated
Jan 4
Waxing Crescent
Jan 7
First Quarter
Jan 15
Full
Jan 23
Last Quarter
Jan 30
New

Hourly Weather History & Observations

Time (CST) Temp. Windchill Dew Point Humidity Pressure Visibility Wind Dir Wind Speed Gust Speed Precip Events Conditions
12:53 AM 41.0 °F 32.8 °F 18.0 °F 40% 29.78 in 10.0 mi South 16.1 mph - N/A   Clear
1:53 AM 42.1 °F 33.1 °F 17.1 °F 37% 29.75 in 10.0 mi South 20.7 mph - N/A   Clear
2:53 AM 43.0 °F 35.4 °F 17.1 °F 35% 29.76 in 10.0 mi SSW 16.1 mph - N/A   Clear
3:53 AM 41.0 °F 32.2 °F 18.0 °F 40% 29.74 in 10.0 mi South 18.4 mph - N/A   Clear
4:53 AM 39.0 °F 29.6 °F 19.0 °F 45% 29.73 in 10.0 mi South 18.4 mph - N/A   Clear
5:53 AM 37.0 °F 29.3 °F 19.9 °F 50% 29.74 in 10.0 mi SSW 11.5 mph - N/A   Clear
6:53 AM 37.0 °F 28.9 °F 21.0 °F 52% 29.72 in 10.0 mi SSW 12.7 mph - N/A   Clear
7:53 AM 36.0 °F 28.5 °F 23.0 °F 59% 29.72 in 10.0 mi South 10.4 mph - N/A   Clear
8:53 AM 44.1 °F 35.4 °F 25.0 °F 47% 29.71 in 10.0 mi SW 21.9 mph - N/A   Clear
9:53 AM 48.9 °F - 25.0 °F 39% 29.71 in 10.0 mi SW 25.3 mph 31.1 mph N/A   Clear
10:53 AM 54.0 °F - 26.1 °F 34% 29.70 in 10.0 mi WSW 19.6 mph - N/A   Clear
11:53 AM 57.9 °F - 25.0 °F 28% 29.68 in 10.0 mi WSW 19.6 mph - N/A   Clear
12:53 PM 55.9 °F - 25.0 °F 30% 29.68 in 10.0 mi West 20.7 mph - N/A   Clear
1:53 PM 55.9 °F - 27.0 °F 33% 29.68 in 10.0 mi NW 16.1 mph 25.3 mph N/A   Clear
2:53 PM 57.0 °F - 28.0 °F 33% 29.70 in 10.0 mi NNW 16.1 mph 23.0 mph N/A   Clear
3:53 PM 54.0 °F - 28.0 °F 37% 29.72 in 10.0 mi NNW 16.1 mph - N/A   Clear
4:53 PM 50.0 °F - 27.0 °F 41% 29.75 in 10.0 mi North 13.8 mph - N/A   Clear
5:53 PM 45.0 °F 38.2 °F 26.1 °F 48% 29.77 in 10.0 mi North 15.0 mph - N/A   Clear
6:53 PM 42.1 °F 31.5 °F 27.0 °F 55% 29.79 in 10.0 mi North 28.8 mph 34.5 mph N/A   Clear
7:53 PM 37.0 °F 25.4 °F 25.0 °F 62% 29.82 in 10.0 mi North 25.3 mph 32.2 mph N/A   Clear
8:53 PM 34.0 °F 20.5 °F 24.1 °F 67% 29.85 in 10.0 mi North 28.8 mph 36.8 mph N/A   Clear
9:53 PM 33.1 °F 18.7 °F 23.0 °F 66% 29.87 in 10.0 mi North 32.2 mph 39.1 mph N/A   Clear
10:53 PM 30.0 °F 16.9 °F 19.9 °F 66% 29.91 in 10.0 mi North 21.9 mph - N/A   Clear
11:53 PM 30.0 °F 16.3 °F 19.0 °F 64% 29.92 in 10.0 mi North 24.2 mph 33.4 mph N/A   Partly Cloudy